EJU69BZ EGHI-LEBL

Flight info

Callsign EJU69BZ
Flight time N/A
Altitude 33000
Route GWC UN859 SOPIL DCT BALAN DCT EVPOK DCT NARAK DCT GAI DCT LOMRA DCT ROCAN DCT PUMAL
Aircraft A319/M-SDE3FGHIRWY/LB1

Departure

Time 2026-05-04 19:45
Airport Southampton Airport (EGHI)

Arrival

Time N/A
Airport Josep Tarradellas Barcelona-El Prat Airport (LEBL)
Time Latitude Longitude Altitude Speed Heading
2026-05-04 19:21 50.94960 -1.36056 39 ft 0 kts 19°
2026-05-04 19:36 50.94937 -1.36069 37 ft 4 kts 19°
2026-05-04 19:36 50.94917 -1.36079 38 ft 4 kts 33°
2026-05-04 19:36 50.94907 -1.36106 38 ft 4 kts 105°
2026-05-04 19:37 50.94914 -1.36138 39 ft 1 kts 109°
2026-05-04 19:37 50.94914 -1.36139 39 ft 0 kts 109°
2026-05-04 19:40 50.94914 -1.36137 39 ft 1 kts 109°
2026-05-04 19:40 50.94909 -1.36115 39 ft 4 kts 109°
2026-05-04 19:40 50.94898 -1.36068 37 ft 5 kts 109°
2026-05-04 19:40 50.94899 -1.36009 39 ft 7 kts 51°
2026-05-04 19:41 50.94969 -1.35966 39 ft 13 kts 19°
2026-05-04 19:41 50.95047 -1.35920 39 ft 9 kts 37°
2026-05-04 19:41 50.95045 -1.35841 39 ft 7 kts 109°
2026-05-04 19:41 50.95029 -1.35765 38 ft 7 kts 109°
2026-05-04 19:42 50.94999 -1.35704 40 ft 9 kts 170°
2026-05-04 19:42 50.94928 -1.35734 40 ft 13 kts 198°
2026-05-04 19:42 50.94833 -1.35787 39 ft 17 kts 200°
2026-05-04 19:42 50.94701 -1.35862 40 ft 24 kts 199°
2026-05-04 19:43 50.94531 -1.35956 37 ft 27 kts 199°
2026-05-04 19:43 50.94379 -1.36041 37 ft 7 kts 199°
2026-05-04 19:43 50.94344 -1.36049 38 ft 3 kts 169°
2026-05-04 19:43 50.94310 -1.36032 38 ft 6 kts 180°
2026-05-04 19:44 50.94315 -1.36077 37 ft 7 kts 353°
2026-05-04 19:44 50.94329 -1.36068 37 ft 0 kts 20°
2026-05-04 19:44 50.94330 -1.36068 36 ft 1 kts 20°
2026-05-04 19:44 50.94500 -1.35972 37 ft 67 kts 19°
2026-05-04 19:45 50.95213 -1.35577 68 ft 142 kts 19°
2026-05-04 19:45 50.96165 -1.35060 759 ft 147 kts 19°
2026-05-04 19:45 50.97148 -1.34538 1489 ft 154 kts 20°
2026-05-04 19:45 50.98232 -1.33977 1927 ft 174 kts 20°
2026-05-04 19:46 50.99415 -1.33191 2272 ft 197 kts 37°
2026-05-04 19:46 51.00195 -1.31309 2732 ft 218 kts 77°
2026-05-04 19:46 51.00107 -1.28876 2968 ft 225 kts 109°
2026-05-04 19:46 50.99206 -1.26871 3004 ft 227 kts 136°
2026-05-04 19:47 50.97976 -1.25287 3009 ft 228 kts 140°
2026-05-04 19:47 50.96712 -1.23768 3008 ft 228 kts 141°
2026-05-04 19:47 50.95457 -1.22239 3008 ft 227 kts 135°
2026-05-04 19:47 50.94572 -1.20220 3012 ft 223 kts 109°
2026-05-04 19:48 50.94091 -1.17889 3007 ft 223 kts 105°
2026-05-04 19:48 50.93603 -1.15443 3291 ft 248 kts 105°
2026-05-04 19:48 50.93074 -1.12788 4146 ft 257 kts 106°
2026-05-04 19:48 50.92524 -1.10054 5094 ft 263 kts 107°
2026-05-04 19:49 50.91959 -1.07259 6026 ft 269 kts 107°
2026-05-04 19:49 50.91384 -1.04417 6935 ft 273 kts 107°
2026-05-04 19:49 50.90797 -1.01529 7851 ft 277 kts 108°
2026-05-04 19:49 50.90202 -0.98607 8772 ft 281 kts 109°
2026-05-04 19:50 50.89601 -0.95646 9690 ft 284 kts 109°
2026-05-04 19:50 50.88985 -0.92619 10339 ft 298 kts 109°
2026-05-04 19:50 50.88320 -0.89371 10640 ft 322 kts 108°
2026-05-04 19:50 50.87606 -0.85885 10950 ft 343 kts 108°
2026-05-04 19:51 50.86862 -0.82245 11579 ft 351 kts 108°
2026-05-04 19:51 50.85901 -0.78671 12305 ft 356 kts 118°
2026-05-04 19:51 50.84472 -0.75449 13052 ft 361 kts 130°
2026-05-04 19:51 50.82613 -0.72735 13810 ft 367 kts 143°
2026-05-04 19:52 50.80468 -0.70507 14467 ft 371 kts 147°
2026-05-04 19:52 50.78288 -0.68299 15162 ft 373 kts 147°
2026-05-04 19:52 50.76094 -0.66075 15865 ft 376 kts 147°
2026-05-04 19:52 50.73886 -0.63833 16559 ft 378 kts 147°
2026-05-04 19:53 50.71667 -0.61577 17243 ft 381 kts 147°
2026-05-04 19:53 50.69430 -0.59304 17925 ft 384 kts 147°
2026-05-04 19:53 50.67176 -0.57013 18560 ft 387 kts 147°
2026-05-04 19:53 50.64903 -0.54713 19163 ft 389 kts 147°
2026-05-04 19:54 50.62614 -0.52402 19791 ft 391 kts 147°
2026-05-04 19:54 50.60349 -0.50119 20395 ft 393 kts 147°
2026-05-04 19:54 50.58012 -0.47762 20972 ft 395 kts 148°
2026-05-04 19:54 50.55717 -0.45450 21520 ft 398 kts 148°
2026-05-04 19:55 50.53373 -0.43096 22064 ft 401 kts 148°
2026-05-04 19:55 50.51015 -0.40734 22590 ft 403 kts 148°
2026-05-04 19:55 50.48638 -0.38358 23106 ft 406 kts 149°
2026-05-04 19:55 50.46243 -0.35963 23618 ft 409 kts 149°
2026-05-04 19:56 50.43835 -0.33557 24038 ft 411 kts 149°
2026-05-04 19:56 50.41419 -0.31145 24482 ft 413 kts 149°
2026-05-04 19:56 50.38998 -0.28725 24955 ft 413 kts 149°
2026-05-04 19:56 50.36570 -0.26294 25409 ft 415 kts 149°
2026-05-04 19:57 50.34134 -0.23862 25847 ft 416 kts 149°
2026-05-04 19:57 50.31683 -0.21427 26272 ft 418 kts 149°
2026-05-04 19:57 50.29227 -0.18987 26693 ft 419 kts 149°
2026-05-04 19:57 50.26759 -0.16535 27101 ft 421 kts 149°
2026-05-04 19:58 50.24277 -0.14073 27511 ft 423 kts 149°
2026-05-04 19:58 50.21789 -0.11614 27901 ft 424 kts 149°
2026-05-04 19:58 50.19287 -0.09149 28287 ft 426 kts 149°
2026-05-04 19:58 50.16771 -0.06673 28684 ft 427 kts 149°
2026-05-04 19:59 50.14258 -0.04197 29069 ft 428 kts 149°
2026-05-04 19:59 50.11719 -0.01740 29432 ft 429 kts 153°
2026-05-04 19:59 50.09016 0.00233 29710 ft 431 kts 161°
2026-05-04 19:59 50.06170 0.01540 29978 ft 433 kts 167°
2026-05-04 20:00 50.03249 0.02668 30344 ft 433 kts 167°
2026-05-04 20:00 50.00326 0.03807 30762 ft 432 kts 167°
2026-05-04 20:00 49.97421 0.04948 31198 ft 430 kts 167°
2026-05-04 20:00 49.94527 0.06089 31657 ft 427 kts 167°
2026-05-04 20:01 49.91656 0.07219 32150 ft 424 kts 168°
2026-05-04 20:01 49.88804 0.08340 32622 ft 422 kts 168°
2026-05-04 20:01 49.85956 0.09456 32943 ft 421 kts 168°
2026-05-04 20:02 49.80309 0.11672 33002 ft 417 kts 168°
2026-05-04 20:02 49.74691 0.13864 33001 ft 416 kts 168°
2026-05-04 20:03 49.69091 0.16040 33001 ft 414 kts 168°
2026-05-04 20:03 49.63506 0.18239 33001 ft 414 kts 168°
2026-05-04 20:04 49.58879 0.20118 33001 ft 414 kts 167°
2026-05-04 20:04 49.53307 0.22379 32999 ft 414 kts 167°
2026-05-04 20:05 49.46840 0.24984 32976 ft 413 kts 168°
2026-05-04 20:05 49.42181 0.26844 32973 ft 412 kts 168°
2026-05-04 20:06 49.36661 0.29034 32972 ft 412 kts 168°
2026-05-04 20:06 49.31117 0.31241 32994 ft 412 kts 168°
2026-05-04 20:07 49.25582 0.33535 32992 ft 412 kts 167°
2026-05-04 20:07 49.20069 0.35896 32973 ft 411 kts 167°
2026-05-04 20:08 49.14564 0.38236 32968 ft 411 kts 167°
2026-05-04 20:08 49.09050 0.40539 32966 ft 410 kts 167°
2026-05-04 20:09 49.03547 0.42835 32971 ft 409 kts 167°
2026-05-04 20:09 48.98063 0.45128 32949 ft 409 kts 168°
2026-05-04 20:10 48.92567 0.47425 32948 ft 410 kts 168°
2026-05-04 20:10 48.87065 0.49717 32948 ft 410 kts 168°
2026-05-04 20:11 48.81551 0.51993 32946 ft 411 kts 168°
2026-05-04 20:11 48.76030 0.54249 32942 ft 411 kts 168°
2026-05-04 20:12 48.70529 0.56394 32943 ft 411 kts 169°
2026-05-04 20:12 48.64993 0.58538 32941 ft 411 kts 168°
2026-05-04 20:12 48.62222 0.59624 33075 ft 413 kts 168°
2026-05-04 20:13 48.59444 0.60715 33514 ft 411 kts 168°
2026-05-04 20:13 48.56681 0.61796 33997 ft 409 kts 169°
2026-05-04 20:13 48.53931 0.62869 34370 ft 408 kts 169°
2026-05-04 20:13 48.51175 0.63943 34646 ft 410 kts 168°
2026-05-04 20:14 48.48411 0.65042 34899 ft 412 kts 168°
2026-05-04 20:14 48.45637 0.66167 35133 ft 414 kts 168°
2026-05-04 20:14 48.42850 0.67310 35357 ft 416 kts 167°
2026-05-04 20:14 48.40052 0.68461 35603 ft 417 kts 167°
2026-05-04 20:15 48.37248 0.69614 35829 ft 419 kts 167°
2026-05-04 20:15 48.34433 0.70767 36041 ft 420 kts 167°
2026-05-04 20:15 48.31603 0.71917 36248 ft 422 kts 167°
2026-05-04 20:15 48.28755 0.73064 36447 ft 424 kts 167°
2026-05-04 20:16 48.25922 0.74054 36639 ft 424 kts 172°
2026-05-04 20:16 48.23014 0.74824 36826 ft 425 kts 172°
2026-05-04 20:16 48.20084 0.75540 36942 ft 427 kts 173°
2026-05-04 20:17 48.14205 0.76895 36950 ft 428 kts 173°
2026-05-04 20:17 48.08322 0.78256 36948 ft 428 kts 173°
2026-05-04 20:18 48.02448 0.79642 36947 ft 428 kts 173°
2026-05-04 20:18 47.96569 0.81036 36948 ft 427 kts 173°
2026-05-04 20:19 47.90694 0.82425 36950 ft 427 kts 173°
2026-05-04 20:19 47.84820 0.83811 36952 ft 427 kts 173°
2026-05-04 20:20 47.78992 0.85185 36931 ft 427 kts 173°
2026-05-04 20:20 47.73125 0.86561 36943 ft 426 kts 173°
2026-05-04 20:21 47.67267 0.87938 36949 ft 426 kts 173°
2026-05-04 20:21 47.58481 0.89991 36948 ft 426 kts 173°
2026-05-04 20:22 47.52625 0.91354 36951 ft 426 kts 173°
2026-05-04 20:22 47.46777 0.92718 36952 ft 425 kts 173°
2026-05-04 20:23 47.40929 0.94079 36950 ft 425 kts 173°
2026-05-04 20:23 47.35081 0.95424 36948 ft 425 kts 173°
2026-05-04 20:24 47.29237 0.96768 36951 ft 425 kts 173°
2026-05-04 20:24 47.23388 0.98113 36952 ft 425 kts 173°
2026-05-04 20:25 47.17544 0.99461 36943 ft 425 kts 173°
2026-05-04 20:25 47.11745 1.00799 36943 ft 425 kts 173°
2026-05-04 20:26 47.05907 1.02132 36944 ft 425 kts 173°
2026-05-04 20:26 47.00064 1.03460 36944 ft 425 kts 173°
2026-05-04 20:27 46.94217 1.04795 36938 ft 425 kts 173°
2026-05-04 20:27 46.88374 1.06126 36943 ft 425 kts 173°
2026-05-04 20:28 46.82528 1.07449 36939 ft 425 kts 173°
2026-05-04 20:28 46.76687 1.08773 36955 ft 425 kts 173°
2026-05-04 20:29 46.70883 1.10087 36940 ft 425 kts 173°
2026-05-04 20:29 46.65044 1.11406 36940 ft 425 kts 173°
2026-05-04 20:30 46.59202 1.12723 36943 ft 425 kts 173°
2026-05-04 20:30 46.53362 1.14032 36930 ft 425 kts 173°
2026-05-04 20:31 46.47521 1.15343 36930 ft 425 kts 173°
2026-05-04 20:31 46.41681 1.16642 36929 ft 425 kts 173°
2026-05-04 20:32 46.35836 1.17939 36925 ft 425 kts 173°
2026-05-04 20:32 46.29980 1.19242 36937 ft 425 kts 173°
2026-05-04 20:33 46.24129 1.20544 36925 ft 425 kts 174°
2026-05-04 20:33 46.18289 1.21839 36920 ft 425 kts 174°
2026-05-04 20:34 46.12484 1.23122 36934 ft 425 kts 174°
2026-05-04 20:34 46.06642 1.24410 36957 ft 424 kts 174°
2026-05-04 20:35 46.00807 1.25693 36951 ft 424 kts 174°
2026-05-04 20:35 45.94974 1.26974 36951 ft 424 kts 174°
2026-05-04 20:36 45.89144 1.28255 36958 ft 423 kts 174°
2026-05-04 20:36 45.83324 1.29530 36959 ft 423 kts 174°
2026-05-04 20:37 45.77501 1.30801 36957 ft 423 kts 174°
2026-05-04 20:37 45.71683 1.32064 36955 ft 423 kts 174°
2026-05-04 20:38 45.65867 1.33319 36952 ft 422 kts 174°
2026-05-04 20:38 45.60054 1.34577 36952 ft 422 kts 174°
2026-05-04 20:39 45.54279 1.35836 36951 ft 422 kts 174°
2026-05-04 20:39 45.48475 1.37097 36953 ft 422 kts 174°
2026-05-04 20:40 45.42666 1.38349 36954 ft 422 kts 174°
2026-05-04 20:40 45.36861 1.39595 36954 ft 422 kts 174°
2026-05-04 20:41 45.31057 1.40841 36963 ft 422 kts 174°
2026-05-04 20:41 45.25252 1.42083 36970 ft 422 kts 174°
2026-05-04 20:42 45.19449 1.43322 36975 ft 422 kts 174°
2026-05-04 20:42 45.13641 1.44571 36976 ft 422 kts 174°
2026-05-04 20:43 45.07827 1.45808 36978 ft 422 kts 174°
2026-05-04 20:43 45.02059 1.47020 36980 ft 422 kts 174°
2026-05-04 20:44 44.96251 1.48247 36949 ft 422 kts 174°
2026-05-04 20:44 44.90439 1.49480 36950 ft 422 kts 174°
2026-05-04 20:45 44.84622 1.50706 36950 ft 422 kts 174°
2026-05-04 20:45 44.78808 1.51933 36948 ft 422 kts 174°
2026-05-04 20:46 44.72999 1.53162 36933 ft 422 kts 175°
2026-05-04 20:46 44.67239 1.54373 36951 ft 421 kts 175°
2026-05-04 20:47 44.61439 1.55588 36960 ft 421 kts 175°
2026-05-04 20:47 44.55641 1.56797 36954 ft 421 kts 175°
2026-05-04 20:48 44.49834 1.58003 36958 ft 422 kts 175°
2026-05-04 20:48 44.44023 1.59213 36963 ft 422 kts 175°
2026-05-04 20:49 44.38208 1.60416 36946 ft 422 kts 175°
2026-05-04 20:49 44.32395 1.61621 36954 ft 422 kts 175°
2026-05-04 20:50 44.26576 1.62827 36955 ft 423 kts 175°
2026-05-04 20:50 44.20759 1.64022 36959 ft 423 kts 175°
2026-05-04 20:51 44.14973 1.65217 36958 ft 423 kts 175°
2026-05-04 20:51 44.09142 1.66421 36961 ft 424 kts 175°
2026-05-04 20:52 44.03310 1.67623 36971 ft 424 kts 175°
2026-05-04 20:52 43.97473 1.68810 36949 ft 424 kts 175°
2026-05-04 20:53 43.91622 1.69995 36948 ft 425 kts 175°
2026-05-04 20:53 43.85762 1.71190 36961 ft 426 kts 175°
2026-05-04 20:54 43.79897 1.72391 36959 ft 426 kts 175°
2026-05-04 20:54 43.74025 1.73591 36966 ft 427 kts 175°
2026-05-04 20:55 43.69127 1.74588 36976 ft 428 kts 175°
2026-05-04 20:55 43.62269 1.75971 36987 ft 428 kts 175°
2026-05-04 20:56 43.56367 1.77158 36973 ft 429 kts 175°
2026-05-04 20:56 43.51422 1.78158 36975 ft 429 kts 175°
2026-05-04 20:57 43.45504 1.79350 36977 ft 430 kts 175°
2026-05-04 20:57 43.39584 1.80543 36967 ft 430 kts 175°
2026-05-04 20:58 43.33701 1.81726 36973 ft 430 kts 175°
2026-05-04 20:58 43.27775 1.82905 36977 ft 430 kts 176°
2026-05-04 20:59 43.21849 1.84087 36983 ft 430 kts 176°
2026-05-04 20:59 43.15915 1.85268 36974 ft 431 kts 176°
2026-05-04 21:00 43.09981 1.86447 36982 ft 431 kts 176°
2026-05-04 21:00 43.04050 1.87633 36983 ft 431 kts 176°
2026-05-04 21:01 42.98116 1.88811 36957 ft 431 kts 176°
2026-05-04 21:01 42.92214 1.89978 36966 ft 431 kts 176°
2026-05-04 21:02 42.89244 1.90566 36819 ft 432 kts 176°
2026-05-04 21:02 42.86239 1.91157 36532 ft 430 kts 176°